"Pseudo-MPEC" for MZ26288

Created 2026 Jul 24 18:35:04 UT using Find_Orb

Click here for an explanation of pseudo-MPECs

 
 Astrometry: 
     MZ26288*KB2026 07 19.73021 18 14 13.17 -14 19 33.9    ~7NF5 19.7 GXNEOCPN86
     MZ26288 KB2026 07 19.73503 18 14 12.44 -14 19 32.6    ~7NF5 20.0 GXNEOCPN86
     MZ26288 KB2026 07 19.73984 18 14 11.69 -14 19 32.9    ~7NF5 19.4 GXNEOCPN86
     MZ26288*0C2026 07 23.36519118 20 40.855-14 27 49.07   ~7OI5 18.00oVNEOCPT08
     MZ26288 0C2026 07 23.36884518 20 40.094-14 27 49.93   ~7OI5 18.25oVNEOCPT08
     MZ26288 0C2026 07 23.37434918 20 38.952-14 27 50.36   ~7OI5 17.86oVNEOCPT08
     MZ26288 0C2026 07 23.38414418 20 37.054-14 27 51.34   ~7OI5 17.96oVNEOCPT08
     MZ26288 KB2026 07 23.49297318 21 12.124-14 30 46.01   ~7OI5 17.6 GXNEOCPQ06
     MZ26288 KB2026 07 23.49675318 21 11.550-14 30 47.58   ~7OI5 18.1 GXNEOCPQ06
     MZ26288 KB2026 07 23.50053218 21 11.069-14 30 49.58   ~7OI5 18.0 GXNEOCPQ06

Station data:
(N86) Xingming Observatory-KATS, Nanshan  (N43.473806 E87.178520)  China.
   Observers Observers X. Gao, Q.-Z. Ye. Measurer Q.-Z. Ye. 0.28-m f/2.2
   Schmidt.
(Q06) Tarui Observatory, Tarui  (N35.394791 E136.495470)  Japan.  Observer H.
   Watanabe. 0.35-m f/1.9 Schmidt-Cassegrain + CMO.
(T08) ATLAS-MLO, Mauna Loa  (N19.536150 W155.576050)  US/Hawaii.  Observers
   L. Denneau, R. Siverd, J. Tonry, H. Weiland. Measurers L. Denneau, N.
   Erasmus, A. Fitzsimmons, J. Robinson, R. Siverd, J. Tonry, H. Weiland.
   0.5-m f/2.0 Schmidt + CCD.

Orbital elements:  MZ26288
   Perihelion 2026 Sep 28.266338 +/- 2.74 TT =  6:23:31.5 (JD 2461311.766338)
Epoch 2026 Jul 23.0 TT = JDT 2461244.5   Earth MOID: 0.0100      AutoNEOCP
M 296.603470984 +/- 2.6             (J2000 ecliptic)
n   0.942470352 +/- 0.00127         Peri.  183.824145 +/- 0.8
a   1.030285491 +/- 0.000928        Node   180.073797 +/- 3.3
e   0.00917039 +/- 0.0011           Incl.    0.118077 +/- 0.0043
P   1.046/381.968d         H 27.28  G  0.15   U  8.3
q 1.020837370 +/- 0.000219    Q 1.039733612 +/- 0.00207
From 10 observations 2026 July 19-23; mean residual 0".42
Residuals in arcseconds: 
260719 N86  .81+  .44-    260723 T08  .01-  .30-    260723 Q06  .44-  .33+    
260719 N86  .15+  .58+    260723 T08  .61-  .00     260723 Q06  .43+  .32+    
260719 N86  .95-  .12-    260723 T08  .06+  .24-    
260723 T08  .40+  .04-    260723 Q06  .16+  .17-    

Ephemerides (geocentric):
Date (UTC) HH   RA             Dec           delta  r     elong  mag " sig PA
---- --------  ------------   ------------  ------ ------ -----  --- --------
2026 07 24 19  18 23 33.713   -14 25 58.88  .01136 1.0259 152.9 18.8 15.3  98
2026 07 24 20  18 23 38.907   -14 26 08.52  .01136 1.0259 152.8 18.8 15.8  98
2026 07 24 21  18 23 44.111   -14 26 18.17  .01136 1.0259 152.8 18.8 16.4  98
2026 07 24 22  18 23 49.326   -14 26 27.84  .01136 1.0258 152.8 18.8 17.1  97
2026 07 24 23  18 23 54.551   -14 26 37.52  .01136 1.0258 152.8 18.8 17.7  97
2026 07 25 00  18 23 59.787   -14 26 47.22  .01136 1.0258 152.8 18.8 18.3  97
2026 07 25 01  18 24 05.032   -14 26 56.94  .01135 1.0258 152.8 18.8 18.9  97
2026 07 25 02  18 24 10.288   -14 27 06.66  .01135 1.0258 152.7 18.8 19.6  97
2026 07 25 03  18 24 15.554   -14 27 16.40  .01135 1.0258 152.7 18.8 20.2  97
2026 07 25 04  18 24 20.831   -14 27 26.16  .01135 1.0258 152.7 18.8 20.9  97
2026 07 25 05  18 24 26.117   -14 27 35.93  .01135 1.0258 152.7 18.8 21.5  97
2026 07 25 06  18 24 31.414   -14 27 45.72  .01135 1.0258 152.7 18.8 22.2  97
2026 07 25 07  18 24 36.721   -14 27 55.52  .01135 1.0258 152.7 18.8 22.9  96
2026 07 25 08  18 24 42.037   -14 28 05.33  .01135 1.0258 152.6 18.8 23.6  96
2026 07 25 09  18 24 47.365   -14 28 15.16  .01135 1.0258 152.6 18.8 24.3  96
2026 07 25 10  18 24 52.702   -14 28 25.01  .01135 1.0258 152.6 18.8 25.0  96
2026 07 25 11  18 24 58.049   -14 28 34.86  .01135 1.0258 152.6 18.8 25.7  96
2026 07 25 12  18 25 03.407   -14 28 44.74  .01134 1.0258 152.6 18.8 26.5  96
2026 07 25 13  18 25 08.774   -14 28 54.62  .01134 1.0258 152.6 18.8 27.2  96
2026 07 25 14  18 25 14.152   -14 29 04.52  .01134 1.0257 152.5 18.8 27.9  96
2026 07 25 15  18 25 19.539   -14 29 14.44  .01134 1.0257 152.5 18.8 28.7  96
2026 07 25 16  18 25 24.937   -14 29 24.37  .01134 1.0257 152.5 18.8 29.4  96
2026 07 25 17  18 25 30.345   -14 29 34.31  .01134 1.0257 152.5 18.8 30.2  96
2026 07 25 18  18 25 35.763   -14 29 44.26  .01134 1.0257 152.5 18.8 31.0  96
2026 07 25 19  18 25 41.191   -14 29 54.23  .01134 1.0257 152.5 18.8 31.8  96
2026 07 25 20  18 25 46.628   -14 30 04.22  .01134 1.0257 152.4 18.8 32.6  96
2026 07 25 21  18 25 52.076   -14 30 14.21  .01134 1.0257 152.4 18.8 33.4  96
2026 07 25 22  18 25 57.534   -14 30 24.22  .01134 1.0257 152.4 18.8 34.2  96
2026 07 25 23  18 26 03.002   -14 30 34.25  .01133 1.0257 152.4 18.8 35.0  96
2026 07 26 00  18 26 08.479   -14 30 44.29  .01133 1.0257 152.4 18.8 35.8  96
2026 07 26 01  18 26 13.967   -14 30 54.34  .01133 1.0257 152.4 18.8 36.7  96
2026 07 26 02  18 26 19.465   -14 31 04.40  .01133 1.0257 152.4 18.8 37.5  95
2026 07 26 03  18 26 24.972   -14 31 14.48  .01133 1.0257 152.3 18.8 38.4  95
2026 07 26 04  18 26 30.489   -14 31 24.57  .01133 1.0257 152.3 18.8 39.3  95
2026 07 26 05  18 26 36.017   -14 31 34.68  .01133 1.0256 152.3 18.8 40.1  95
2026 07 26 06  18 26 41.554   -14 31 44.80  .01133 1.0256 152.3 18.8 41.0  95
2026 07 26 07  18 26 47.101   -14 31 54.93  .01133 1.0256 152.3 18.8 41.9  95
2026 07 26 08  18 26 52.657   -14 32 05.07  .01133 1.0256 152.3 18.8 42.8  95
2026 07 26 09  18 26 58.224   -14 32 15.23  .01132 1.0256 152.2 18.8 43.7  95
2026 07 26 10  18 27 03.801   -14 32 25.40  .01132 1.0256 152.2 18.8 44.7  95
2026 07 26 11  18 27 09.387   -14 32 35.59  .01132 1.0256 152.2 18.8 45.6  95
2026 07 26 12  18 27 14.983   -14 32 45.78  .01132 1.0256 152.2 18.8 46.5  95
2026 07 26 13  18 27 20.589   -14 32 55.99  .01132 1.0256 152.2 18.8 47.5  95
2026 07 26 14  18 27 26.204   -14 33 06.22  .01132 1.0256 152.2 18.8 48.4  95
2026 07 26 15  18 27 31.829   -14 33 16.45  .01132 1.0256 152.2 18.8 49.4  95
2026 07 26 16  18 27 37.465   -14 33 26.70  .01132 1.0256 152.1 18.8 50.4  95
2026 07 26 17  18 27 43.109   -14 33 36.96  .01132 1.0256 152.1 18.8 51.3  95
2026 07 26 18  18 27 48.764   -14 33 47.24  .01131 1.0256 152.1 18.8 52.3  95